Home   Weather   Wilmington   Past weeks

Flag for USA Past Weather in Wilmington, North Carolina, USA — Yesterday and Last 2 Weeks

Now
75 °F

Thundershowers. Broken clouds.


Feels Like: 73 °F
Forecast: 72 / 83 °F
Wind: 5 mph from Northeast

Location: New Hanover International Airport

Current Time: Sep 30, 2016 at 9:35:34 AM

Latest Report: Sep 30, 2016 at 8:58 AM


Visibility: 10 mi

Pressure: 30.02 "Hg

Humidity: 94%

Dew Point: 73 °F

Location of WilmingtonLocation

Past Weather in Wilmington — Graph

°F

Wilmington Temperature Yesterday

Maximum temperature yesterday: 81 °F (at 3:53 PM)
Minimum temperature yesterday: 71 °F (at 4:53 AM)
Average temperature yesterday: 76 °F

High & Low Weather Summary for the Past Weeks

 TemperatureHumidityPressure
High88 °F (Sep 24, 4:53 PM)100% (Sep 19, 5:59 PM)30.16 "Hg (Sep 19, 5:59 PM)
Low66 °F (Sep 26, 6:53 AM)46% (Sep 24, 4:53 PM)29.86 "Hg (Sep 19, 3:02 PM)
Average76 °F86%30.00 "Hg
* Reported Sep 15 7:53 AM — Sep 30 7:57 AM, Wilmington, Weather by CustomWeather, © 2016

Note: Actual official high and low records may vary slightly from our data, if they occured in-between our weather recording intervals... More about our weather records

Advertising

Wilmington Weather History for the Previous 24 Hours

Scroll right to see more
 ConditionsComfort  
Time TempWeatherWind HumidityBarometerVisibility
7:57 AM
Fri, Sep 30
71 °FStrong thunderstorms. Fog.22 mph96%30.01 "Hg0 mi
6:53 AM72 °FFog.5 mph97%29.99 "Hg6 mi
5:53 AM73 °FClear.3 mph97%29.98 "Hg7 mi
4:53 AM74 °FPassing clouds.No wind97%29.96 "Hg10 mi
3:53 AM76 °FPassing clouds.3 mph94%29.97 "Hg10 mi
2:53 AM76 °FClear.6 mph91%29.97 "Hg10 mi
1:53 AM75 °FClear.3 mph94%29.98 "Hg10 mi
12:53 AM76 °FClear.5 mph88%29.99 "Hg10 mi
11:53 PM
Thu, Sep 29
75 °FClear.3 mph90%30.01 "Hg10 mi
10:53 PM77 °FClear.5 mph85%30.02 "Hg10 mi
9:53 PM77 °FClear.5 mph85%30.01 "Hg10 mi
8:53 PM77 °FClear.6 mph85%30.00 "Hg10 mi
7:53 PM76 °FPassing clouds.5 mph88%29.99 "Hg10 mi
6:53 PM78 °FSunny.7 mph82%29.98 "Hg10 mi
5:53 PM79 °FSunny.7 mph79%29.99 "Hg10 mi
4:53 PM81 °FPassing clouds.6 mph74%29.99 "Hg10 mi
3:53 PM81 °FScattered clouds.8 mph72%29.98 "Hg10 mi
2:53 PM79 °FSunny.3 mph77%29.97 "Hg10 mi
1:53 PM75 °FPartly sunny.5 mph82%30.01 "Hg10 mi
12:53 PM73 °FBroken clouds.7 mph94%30.03 "Hg10 mi
11:53 AM73 °FThundershowers. Overcast.9 mph81%30.04 "Hg10 mi
10:53 AM73 °FOvercast.9 mph84%30.02 "Hg10 mi
9:53 AM72 °FPartly sunny.10 mph87%30.00 "Hg10 mi
Weather by CustomWeather, © 2016

See weather overviewHow to use our weather pages